When you browse on this site, cookies collect data to enhance your experience and personalize the content and advertising you see.
Visit our Privacy Policy to learn more. By continuing to use the site, you agree to this use of cookies and data.
  • Em Portugal
  • Lista de países
  • Para 7 dias
  • Temperatura da água
  • Mapa do tempo
  • Widgets de tempo
  • user-avatar
    Iniciar Sessão

    Previsão horária em Prutz

    Hoje, 17 Fevereiro, Segunda-feira

    Tempo Temperatura Precipitação Vento Pressão Humidade
    00:00 +3°C° 0 mm 3 m/s 635 mmHg 54%
    01:00 +2°C° 0 mm 3 m/s 635 mmHg 54%
    02:00 +3°C° 0 mm 2 m/s 635 mmHg 54%
    03:00 +2°C° 0 mm 2 m/s 634 mmHg 54%
    04:00 +3°C° 0 mm 1 m/s 634 mmHg 54%
    05:00 +3°C° 0 mm 1 m/s 634 mmHg 56%
    06:00 +3°C° 0 mm 1 m/s 634 mmHg 57%
    07:00 +3°C° 0 mm 1 m/s 634 mmHg 59%
    08:00 +4°C° 0 mm 1 m/s 634 mmHg 64%
    09:00 +5°C° 0 mm 1 m/s 635 mmHg 69%
    10:00 +5°C° 0 mm 2 m/s 635 mmHg 74%
    11:00 +6°C° 0 mm 1 m/s 635 mmHg 78%
    12:00 +6°C° 0 mm 1 m/s 634 mmHg 83%
    13:00 +6°C° 0 mm 1 m/s 634 mmHg 88%
    14:00 +6°C° 0 mm 1 m/s 634 mmHg 90%
    15:00 +6°C° 0 mm 1 m/s 634 mmHg 91%
    16:00 +5°C° 0 mm 1 m/s 634 mmHg 93%
    17:00 +4°C° 0 mm 1 m/s 634 mmHg 94%
    18:00 +3°C° 0 mm 1 m/s 634 mmHg 94%
    19:00 +1°C° 0 mm 0 m/s 634 mmHg 95%
    20:00 +2°C° 0.2 mm 1 m/s 634 mmHg 95%
    21:00 +2°C° 0.2 mm 1 m/s 634 mmHg 96%
    22:00 +2°C° 0.2 mm 1 m/s 634 mmHg 96%
    23:00 +2°C° 0.7 mm 1 m/s 634 mmHg 96%

    Amanhã, 18 Fevereiro, Terça-feira

    Tempo Temperatura Precipitação Vento Pressão Humidade
    00:00 +1°C° 0.7 mm 1 m/s 635 mmHg 97%
    01:00 +1°C° 0.7 mm 1 m/s 635 mmHg 97%
    02:00 -1°C° 0.5 mm 2 m/s 635 mmHg 97%
    03:00 -2°C° 0.5 mm 2 m/s 635 mmHg 96%
    04:00 -2°C° 0.5 mm 2 m/s 635 mmHg 96%
    05:00 -1°C° 0.1 mm 1 m/s 635 mmHg 96%
    06:00 -3°C° 0.1 mm 1 m/s 635 mmHg 96%
    07:00 -4°C° 0.1 mm 1 m/s 635 mmHg 96%
    08:00 -2°C° 0.1 mm 1 m/s 635 mmHg 93%
    09:00 -1°C° 0.1 mm 1 m/s 636 mmHg 90%
    10:00 0°C° 0.1 mm 1 m/s 636 mmHg 87%
    11:00 0°C° 0 mm 1 m/s 636 mmHg 86%
    12:00 +1°C° 0 mm 1 m/s 636 mmHg 86%
    13:00 +1°C° 0 mm 1 m/s 636 mmHg 86%
    14:00 +1°C° 0.1 mm 1 m/s 636 mmHg 85%
    15:00 +1°C° 0.1 mm 1 m/s 636 mmHg 85%
    16:00 +1°C° 0.1 mm 1 m/s 636 mmHg 84%
    17:00 -1°C° 0 mm 1 m/s 635 mmHg 87%
    18:00 -2°C° 0 mm 1 m/s 635 mmHg 91%
    19:00 -4°C° 0 mm 1 m/s 634 mmHg 94%
    20:00 -4°C° 0 mm 1 m/s 634 mmHg 93%
    21:00 -4°C° 0 mm 1 m/s 634 mmHg 93%
    22:00 -4°C° 0 mm 1 m/s 635 mmHg 92%
    23:00 -6°C° 0 mm 1 m/s 634 mmHg 91%

    Depois de amanhã, 19 Fevereiro, Quarta-feira

    Tempo Temperatura Precipitação Vento Pressão Humidade
    00:00 -6°C° 0 mm 1 m/s 634 mmHg 89%
    01:00 -6°C° 0 mm 1 m/s 633 mmHg 88%
    02:00 -7°C° 0 mm 1 m/s 633 mmHg 88%
    03:00 -7°C° 0 mm 1 m/s 632 mmHg 88%
    04:00 -7°C° 0 mm 1 m/s 632 mmHg 88%
    05:00 -7°C° 0 mm 1 m/s 632 mmHg 88%
    06:00 -7°C° 0 mm 1 m/s 632 mmHg 88%
    07:00 -7°C° 0 mm 1 m/s 631 mmHg 88%
    08:00 -4°C° 0 mm 1 m/s 632 mmHg 83%
    09:00 -3°C° 0 mm 1 m/s 632 mmHg 77%
    10:00 -1°C° 0 mm 1 m/s 633 mmHg 72%
    11:00 -2°C° 0 mm 2 m/s 633 mmHg 71%
    12:00 -2°C° 0 mm 2 m/s 633 mmHg 69%
    13:00 -1°C° 0 mm 2 m/s 632 mmHg 68%
    14:00 -1°C° 0.6 mm 2 m/s 632 mmHg 74%
    15:00 -2°C° 0.6 mm 2 m/s 632 mmHg 80%
    16:00 -4°C° 0.6 mm 3 m/s 631 mmHg 86%
    17:00 -4°C° 0.9 mm 2 m/s 632 mmHg 88%
    18:00 -5°C° 0.9 mm 2 m/s 632 mmHg 91%
    19:00 -6°C° 0.9 mm 2 m/s 632 mmHg 93%
    20:00 -4°C° 0.7 mm 1 m/s 633 mmHg 93%
    21:00 -4°C° 0.7 mm 1 m/s 633 mmHg 94%
    22:00 -4°C° 0.7 mm 1 m/s 634 mmHg 94%
    23:00 -6°C° 0.1 mm 1 m/s 633 mmHg 94%

    20 Fevereiro, Quinta-feira

    Tempo Temperatura Precipitação Vento Pressão Humidade
    00:00 -7°C° 0.1 mm 1 m/s 633 mmHg 94%
    01:00 -8°C° 0.1 mm 1 m/s 632 mmHg 94%
    02:00 -8°C° 0 mm 1 m/s 632 mmHg 89%
    03:00 -9°C° 0 mm 2 m/s 632 mmHg 84%
    04:00 -9°C° 0 mm 2 m/s 632 mmHg 80%
    05:00 -9°C° 0 mm 2 m/s 632 mmHg 74%
    06:00 -7°C° 0 mm 1 m/s 632 mmHg 68%
    07:00 -7°C° 0 mm 1 m/s 632 mmHg 62%
    08:00 -4°C° 0 mm 1 m/s 632 mmHg 60%
    09:00 -2°C° 0 mm 1 m/s 633 mmHg 59%
    10:00 0°C° 0 mm 1 m/s 634 mmHg 57%
    11:00 +1°C° 0 mm 1 m/s 634 mmHg 62%
    12:00 +2°C° 0 mm 1 m/s 634 mmHg 66%
    13:00 +3°C° 0 mm 1 m/s 633 mmHg 71%
    14:00 +3°C° 0 mm 1 m/s 633 mmHg 73%
    15:00 +4°C° 0 mm 1 m/s 633 mmHg 75%
    16:00 +4°C° 0 mm 1 m/s 633 mmHg 76%
    17:00 +2°C° 0 mm 1 m/s 633 mmHg 74%
    18:00 +1°C° 0 mm 1 m/s 633 mmHg 73%
    19:00 -3°C° 0 mm 2 m/s 632 mmHg 71%
    20:00 -1°C° 0 mm 1 m/s 633 mmHg 67%
    21:00 -1°C° 0 mm 1 m/s 633 mmHg 63%
    22:00 -1°C° 0 mm 1 m/s 633 mmHg 59%
    23:00 -1°C° 0 mm 1 m/s 633 mmHg 58%

    21 Fevereiro, Sexta-feira

    Tempo Temperatura Precipitação Vento Pressão Humidade
    00:00 -1°C° 0 mm 1 m/s 633 mmHg 57%
    01:00 -2°C° 0 mm 1 m/s 633 mmHg 56%
    02:00 -2°C° 0 mm 1 m/s 633 mmHg 61%
    03:00 -3°C° 0 mm 1 m/s 633 mmHg 65%
    04:00 -4°C° 0 mm 1 m/s 633 mmHg 70%
    05:00 -4°C° 0 mm 1 m/s 633 mmHg 74%
    06:00 -3°C° 0 mm 1 m/s 634 mmHg 77%
    07:00 -3°C° 0 mm 1 m/s 634 mmHg 81%
    14:00 -1°C° 0 mm 2 m/s 637 mmHg 80%
    15:00 +2°C° 0 mm 1 m/s 638 mmHg 86%
    16:00 +2°C° 0 mm 1 m/s 638 mmHg 84%
    17:00 0°C° 0 mm 1 m/s 637 mmHg 84%
    18:00 -2°C° 0 mm 1 m/s 637 mmHg 83%
    19:00 -3°C° 0 mm 1 m/s 637 mmHg 83%
    20:00 -3°C° 0 mm 1 m/s 637 mmHg 75%
    21:00 -3°C° 0 mm 1 m/s 638 mmHg 67%
    22:00 -3°C° 0 mm 1 m/s 638 mmHg 59%
    23:00 -5°C° 0 mm 2 m/s 638 mmHg 54%

    22 Fevereiro, Sábado

    Tempo Temperatura Precipitação Vento Pressão Humidade
    00:00 -5°C° 0 mm 2 m/s 638 mmHg 48%
    01:00 -4°C° 0 mm 2 m/s 638 mmHg 43%
    02:00 -4°C° 0 mm 2 m/s 638 mmHg 41%
    03:00 -4°C° 0 mm 2 m/s 638 mmHg 38%
    04:00 -3°C° 0 mm 2 m/s 638 mmHg 36%
    05:00 -3°C° 0 mm 2 m/s 638 mmHg 36%
    06:00 -3°C° 0 mm 2 m/s 638 mmHg 35%
    07:00 -3°C° 0 mm 2 m/s 638 mmHg 34%
    08:00 -1°C° 0 mm 2 m/s 639 mmHg 43%
    09:00 +2°C° 0 mm 2 m/s 639 mmHg 51%
    10:00 +5°C° 0 mm 1 m/s 640 mmHg 59%
    11:00 +6°C° 0 mm 1 m/s 640 mmHg 67%
    12:00 +6°C° 0 mm 1 m/s 640 mmHg 74%
    13:00 +7°C° 0 mm 1 m/s 640 mmHg 81%
    14:00 +6°C° 0 mm 1 m/s 640 mmHg 78%
    15:00 +6°C° 0 mm 1 m/s 639 mmHg 76%
    16:00 +6°C° 0 mm 1 m/s 639 mmHg 73%
    17:00 +4°C° 0 mm 2 m/s 639 mmHg 68%
    18:00 +3°C° 0 mm 2 m/s 639 mmHg 63%
    19:00 +2°C° 0 mm 2 m/s 639 mmHg 58%
    20:00 +2°C° 0 mm 2 m/s 639 mmHg 62%
    21:00 +2°C° 0 mm 2 m/s 639 mmHg 67%
    22:00 +2°C° 0 mm 2 m/s 640 mmHg 71%
    23:00 +2°C° 0.1 mm 2 m/s 640 mmHg 79%
    Mostrar mais